Time,TemperatureF,DewpointF,PressureIn,WindDirection,WindDirectionDegrees,WindSpeedMPH,WindSpeedGustMPH,Humidity,HourlyPrecipIn,Conditions,Clouds,dailyrainin,SoftwareType,DateUTC
2013-12-30 00:00:00,21.0,15.5,30.47,NW,315,9.0,22.0,79,0.00,CLR,,0.00,WeatherDisplay:10.37,2013-12-30 05:00:00,
2013-12-30 00:05:00,29.8,28.0,29.73,WNW,302,5.0,11.0,92,0.00,,,0.00,weatherlink.com 1.10,2013-12-30 05:05:00,
2013-12-30 00:10:00,20.5,15.3,30.49,NW,315,9.0,19.0,80,0.00,CLR,,0.00,WeatherDisplay:10.37,2013-12-30 05:10:00,
2013-12-30 00:15:00,20.5,15.3,30.49,NW,315,9.0,19.0,80,0.00,CLR,,0.00,WeatherDisplay:10.37,2013-12-30 05:15:00,
2013-12-30 00:20:00,28.7,27.0,29.73,WNW,298,6.0,16.0,92,0.00,,,0.00,weatherlink.com 1.10,2013-12-30 05:20:00,
2013-12-30 00:25:00,20.5,15.3,30.49,NW,315,9.0,19.0,80,0.00,CLR,,0.00,WeatherDisplay:10.37,2013-12-30 05:25:00,
2013-12-30 00:30:00,20.5,15.3,30.49,NW,315,9.0,19.0,80,0.00,CLR,,0.00,WeatherDisplay:10.37,2013-12-30 05:30:00,
2013-12-30 00:35:00,27.7,26.0,29.75,NW,317,7.0,14.0,92,0.00,,,0.00,weatherlink.com 1.10,2013-12-30 05:35:00,
2013-12-30 00:40:00,19.8,14.9,30.52,NW,315,8.0,18.0,81,0.00,CLR,,0.00,WeatherDisplay:10.37,2013-12-30 05:40:00,
2013-12-30 00:45:00,19.8,14.9,30.52,NW,315,8.0,18.0,81,0.00,CLR,,0.00,WeatherDisplay:10.37,2013-12-30 05:45:00,
2013-12-30 00:50:00,27.0,24.0,29.75,WNW,298,12.0,21.0,88,0.00,,,0.00,weatherlink.com 1.10,2013-12-30 05:50:00,
2013-12-30 00:55:00,19.8,14.9,30.52,NW,315,8.0,18.0,81,0.00,CLR,,0.00,WeatherDisplay:10.37,2013-12-30 05:55:00,
2013-12-30 01:00:00,19.8,14.9,30.52,NW,315,8.0,18.0,81,0.00,CLR,,0.00,WeatherDisplay:10.37,2013-12-30 06:00:00,
2013-12-30 01:05:00,26.9,24.0,29.76,NNW,345,8.0,14.0,87,0.00,,,0.00,weatherlink.com 1.10,2013-12-30 06:05:00,
2013-12-30 01:10:00,18.6,12.3,30.56,NW,315,10.0,22.0,76,0.00,CLR,,0.00,WeatherDisplay:10.37,2013-12-30 06:10:00,
2013-12-30 01:15:00,18.6,12.3,30.56,NW,315,10.0,22.0,76,0.00,CLR,,0.00,WeatherDisplay:10.37,2013-12-30 06:15:00,
2013-12-30 01:20:00,26.6,23.0,29.77,NW,320,8.0,18.0,86,0.00,,,0.00,weatherlink.com 1.10,2013-12-30 06:20:00,
2013-12-30 01:25:00,18.6,12.3,30.56,NW,315,10.0,22.0,76,0.00,CLR,,0.00,WeatherDisplay:10.37,2013-12-30 06:25:00,
2013-12-30 01:30:00,18.6,12.3,30.56,NW,315,10.0,22.0,76,0.00,CLR,,0.00,WeatherDisplay:10.37,2013-12-30 06:30:00,
2013-12-30 01:35:00,26.5,23.0,29.78,NW,306,16.0,18.0,87,0.00,,,0.00,weatherlink.com 1.10,2013-12-30 06:35:00,
2013-12-30 01:40:00,17.6,14.9,30.58,NW,315,9.0,18.0,89,0.00,CLR,,0.00,WeatherDisplay:10.37,2013-12-30 06:40:00,
2013-12-30 01:45:00,17.6,14.9,30.58,NW,315,9.0,18.0,89,0.00,CLR,,0.00,WeatherDisplay:10.37,2013-12-30 06:45:00,
2013-12-30 01:50:00,26.5,23.0,29.79,WNW,295,5.0,13.0,85,0.00,,,0.00,weatherlink.com 1.10,2013-12-30 06:50:00,
2013-12-30 01:55:00,17.6,14.9,30.58,NW,315,9.0,18.0,89,0.00,CLR,,0.00,WeatherDisplay:10.37,2013-12-30 06:55:00,
2013-12-30 02:00:00,17.6,14.9,30.58,NW,315,9.0,18.0,89,0.00,CLR,,0.00,WeatherDisplay:10.37,2013-12-30 07:00:00,
2013-12-30 02:05:00,26.4,23.0,29.80,NW,310,4.0,16.0,86,0.00,,,0.00,weatherlink.com 1.10,2013-12-30 07:05:00,
2013-12-30 02:10:00,17.4,12.3,30.60,NW,315,10.0,21.0,80,0.00,CLR,,0.00,WeatherDisplay:10.37,2013-12-30 07:10:00,
2013-12-30 02:15:00,17.4,12.3,30.60,NW,315,10.0,21.0,80,0.00,CLR,,0.00,WeatherDisplay:10.37,2013-12-30 07:15:00,
2013-12-30 02:20:00,26.4,23.0,29.81,NW,312,3.0,15.0,86,0.00,,,0.00,weatherlink.com 1.10,2013-12-30 07:20:00,
2013-12-30 02:25:00,17.4,12.3,30.60,NW,315,10.0,21.0,80,0.00,CLR,,0.00,WeatherDisplay:10.37,2013-12-30 07:25:00,
2013-12-30 02:30:00,17.4,12.3,30.60,NW,315,10.0,21.0,80,0.00,CLR,,0.00,WeatherDisplay:10.37,2013-12-30 07:30:00,
2013-12-30 02:35:00,17.3,14.1,30.61,NW,315,8.0,14.0,87,0.00,CLR,,0.00,WeatherDisplay:10.37,2013-12-30 07:35:00,
2013-12-30 02:36:00,26.5,23.0,29.83,NW,307,3.0,10.0,87,0.00,,,0.00,weatherlink.com 1.10,2013-12-30 07:36:00,
2013-12-30 02:40:00,17.3,14.1,30.61,NW,315,8.0,14.0,87,0.00,CLR,,0.00,WeatherDisplay:10.37,2013-12-30 07:40:00,
2013-12-30 02:45:00,17.3,14.1,30.61,NW,315,8.0,14.0,87,0.00,CLR,,0.00,WeatherDisplay:10.37,2013-12-30 07:45:00,
2013-12-30 02:50:00,26.2,21.0,29.83,WNW,299,12.0,23.0,81,0.00,,,0.00,weatherlink.com 1.10,2013-12-30 07:50:00,
2013-12-30 02:55:00,17.3,14.1,30.61,NW,315,8.0,14.0,87,0.00,CLR,,0.00,WeatherDisplay:10.37,2013-12-30 07:55:00,
2013-12-30 03:00:00,17.3,14.1,30.61,NW,315,8.0,14.0,87,0.00,CLR,,0.00,WeatherDisplay:10.37,2013-12-30 08:00:00,
2013-12-30 03:05:00,25.7,20.0,29.85,West,274,12.0,22.0,80,0.00,,,0.00,weatherlink.com 1.10,2013-12-30 08:05:00,
2013-12-30 03:10:00,17.1,13.4,30.63,NW,315,7.0,13.0,85,0.00,CLR,,0.00,WeatherDisplay:10.37,2013-12-30 08:10:00,
2013-12-30 03:15:00,17.1,13.4,30.63,NW,315,7.0,13.0,85,0.00,CLR,,0.00,WeatherDisplay:10.37,2013-12-30 08:15:00,
2013-12-30 03:20:00,25.2,20.0,29.86,NW,313,10.0,20.0,80,0.00,,,0.00,weatherlink.com 1.10,2013-12-30 08:20:00,
2013-12-30 03:25:00,17.1,13.4,30.63,NW,315,7.0,13.0,85,0.00,CLR,,0.00,WeatherDisplay:10.37,2013-12-30 08:25:00,
2013-12-30 03:30:00,17.1,13.4,30.63,NW,315,7.0,13.0,85,0.00,CLR,,0.00,WeatherDisplay:10.37,2013-12-30 08:30:00,
2013-12-30 03:35:00,24.8,20.0,29.87,NNW,337,6.0,16.0,81,0.00,,,0.00,weatherlink.com 1.10,2013-12-30 08:35:00,
2013-12-30 03:40:00,16.1,13.7,30.64,NNW,338,6.0,14.0,90,0.00,CLR,,0.00,WeatherDisplay:10.37,2013-12-30 08:40:00,
2013-12-30 03:45:00,16.1,13.7,30.64,NNW,338,6.0,14.0,90,0.00,CLR,,0.00,WeatherDisplay:10.37,2013-12-30 08:45:00,
2013-12-30 03:50:00,24.1,19.0,29.88,NW,319,8.0,13.0,82,0.00,,,0.00,weatherlink.com 1.10,2013-12-30 08:50:00,
2013-12-30 03:55:00,16.1,13.7,30.64,NNW,338,6.0,14.0,90,0.00,CLR,,0.00,WeatherDisplay:10.37,2013-12-30 08:55:00,
2013-12-30 04:00:00,16.1,13.7,30.64,NNW,338,6.0,14.0,90,0.00,CLR,,0.00,WeatherDisplay:10.37,2013-12-30 09:00:00,
2013-12-30 04:05:00,23.3,20.0,29.89,WNW,293,11.0,17.0,85,0.00,,,0.00,weatherlink.com 1.10,2013-12-30 09:05:00,
2013-12-30 04:10:00,16.5,13.8,30.65,NNW,338,6.0,12.0,89,0.00,CLR,,0.00,WeatherDisplay:10.37,2013-12-30 09:10:00,
2013-12-30 04:15:00,16.5,13.8,30.65,NNW,338,6.0,12.0,89,0.00,CLR,,0.00,WeatherDisplay:10.37,2013-12-30 09:15:00,
2013-12-30 04:20:00,16.5,13.8,30.65,NNW,338,6.0,12.0,89,0.00,CLR,,0.00,WeatherDisplay:10.37,2013-12-30 09:20:00,
2013-12-30 04:21:00,22.8,19.0,29.90,NW,309,12.0,16.0,86,0.00,,,0.00,weatherlink.com 1.10,2013-12-30 09:21:00,
2013-12-30 04:25:00,16.5,13.8,30.65,NNW,338,6.0,12.0,89,0.00,CLR,,0.00,WeatherDisplay:10.37,2013-12-30 09:25:00,
2013-12-30 04:30:00,16.5,13.8,30.65,NNW,338,6.0,12.0,89,0.00,CLR,,0.00,WeatherDisplay:10.37,2013-12-30 09:30:00,
2013-12-30 04:35:00,16.8,13.3,30.67,NNW,338,6.0,14.0,86,0.00,CLR,,0.00,WeatherDisplay:10.37,2013-12-30 09:35:00,
2013-12-30 04:36:00,22.6,19.0,29.91,NW,325,7.0,17.0,85,0.00,,,0.00,weatherlink.com 1.10,2013-12-30 09:36:00,
2013-12-30 04:40:00,16.8,13.3,30.67,NNW,338,6.0,14.0,86,0.00,CLR,,0.00,WeatherDisplay:10.37,2013-12-30 09:40:00,
2013-12-30 04:45:00,16.8,13.3,30.67,NNW,338,6.0,14.0,86,0.00,CLR,,0.00,WeatherDisplay:10.37,2013-12-30 09:45:00,
2013-12-30 04:50:00,16.8,13.3,30.67,NNW,338,6.0,14.0,86,0.00,CLR,,0.00,WeatherDisplay:10.37,2013-12-30 09:50:00,
2013-12-30 04:51:00,22.1,19.0,29.93,NW,325,16.0,16.0,87,0.00,,,0.00,weatherlink.com 1.10,2013-12-30 09:51:00,
2013-12-30 04:55:00,16.8,13.3,30.67,NNW,338,6.0,14.0,86,0.00,CLR,,0.00,WeatherDisplay:10.37,2013-12-30 09:55:00,
2013-12-30 05:00:00,16.8,13.3,30.67,NNW,338,6.0,14.0,86,0.00,CLR,,0.00,WeatherDisplay:10.37,2013-12-30 10:00:00,
2013-12-30 05:05:00,17.6,12.8,30.68,NW,326,6.0,15.0,81,0.00,CLR,,0.00,WeatherDisplay:10.37,2013-12-30 10:05:00,
2013-12-30 05:06:00,21.2,17.0,29.94,NW,317,12.0,22.0,83,0.00,,,0.00,weatherlink.com 1.10,2013-12-30 10:06:00,
2013-12-30 05:10:00,17.6,12.8,30.68,NW,315,6.0,15.0,81,0.00,CLR,,0.00,WeatherDisplay:10.37,2013-12-30 10:10:00,
2013-12-30 05:15:00,17.6,12.8,30.68,NW,315,6.0,15.0,81,0.00,CLR,,0.00,WeatherDisplay:10.37,2013-12-30 10:15:00,
2013-12-30 05:20:00,17.6,12.8,30.68,NW,315,6.0,15.0,81,0.00,CLR,,0.00,WeatherDisplay:10.37,2013-12-30 10:20:00,
2013-12-30 05:21:00,21.1,16.0,29.95,WNW,299,12.0,19.0,79,0.00,,,0.00,weatherlink.com 1.10,2013-12-30 10:21:00,
2013-12-30 05:25:00,17.6,12.8,30.68,NW,315,6.0,15.0,81,0.00,CLR,,0.00,WeatherDisplay:10.37,2013-12-30 10:25:00,
2013-12-30 05:30:00,17.6,12.8,30.68,NW,315,6.0,15.0,81,0.00,CLR,,0.00,WeatherDisplay:10.37,2013-12-30 10:30:00,
2013-12-30 05:35:00,16.5,11.7,30.68,NW,326,6.0,14.0,81,0.00,CLR,,0.00,WeatherDisplay:10.37,2013-12-30 10:35:00,
2013-12-30 05:36:00,21.0,16.0,29.97,NW,317,7.0,17.0,80,0.00,,,0.00,weatherlink.com 1.10,2013-12-30 10:36:00,
2013-12-30 05:40:00,16.5,11.7,30.68,NNW,338,6.0,14.0,81,0.00,CLR,,0.00,WeatherDisplay:10.37,2013-12-30 10:40:00,
2013-12-30 05:45:00,16.5,11.7,30.68,NNW,338,6.0,14.0,81,0.00,CLR,,0.00,WeatherDisplay:10.37,2013-12-30 10:45:00,
2013-12-30 05:50:00,16.5,11.7,30.68,NNW,338,6.0,14.0,81,0.00,CLR,,0.00,WeatherDisplay:10.37,2013-12-30 10:50:00,
2013-12-30 05:51:00,20.6,14.0,29.98,West,280,14.0,19.0,77,0.00,,,0.00,weatherlink.com 1.10,2013-12-30 10:51:00,
2013-12-30 05:55:00,16.5,11.7,30.68,NNW,338,6.0,14.0,81,0.00,CLR,,0.00,WeatherDisplay:10.37,2013-12-30 10:55:00,
2013-12-30 06:00:00,16.5,11.7,30.68,NNW,338,6.0,14.0,81,0.00,CLR,,0.00,WeatherDisplay:10.37,2013-12-30 11:00:00,
2013-12-30 06:05:00,17.0,12.2,30.69,NW,326,6.0,15.0,81,0.00,CLR,,0.00,WeatherDisplay:10.37,2013-12-30 11:05:00,
2013-12-30 06:06:00,20.4,16.0,30.00,NNW,332,7.0,15.0,82,0.00,,,0.00,weatherlink.com 1.10,2013-12-30 11:06:00,
2013-12-30 06:10:00,17.0,12.2,30.69,NW,315,6.0,15.0,81,0.00,CLR,,0.00,WeatherDisplay:10.37,2013-12-30 11:10:00,
2013-12-30 06:15:00,17.0,12.2,30.69,NW,315,6.0,15.0,81,0.00,CLR,,0.00,WeatherDisplay:10.37,2013-12-30 11:15:00,
2013-12-30 06:20:00,17.0,12.2,30.69,NW,315,6.0,15.0,81,0.00,CLR,,0.00,WeatherDisplay:10.37,2013-12-30 11:20:00,
2013-12-30 06:21:00,20.1,16.0,30.01,NNW,345,7.0,13.0,84,0.00,,,0.00,weatherlink.com 1.10,2013-12-30 11:21:00,
2013-12-30 06:25:00,17.0,12.2,30.69,NW,315,6.0,15.0,81,0.00,CLR,,0.00,WeatherDisplay:10.37,2013-12-30 11:25:00,
2013-12-30 06:30:00,17.0,12.2,30.69,NW,315,6.0,15.0,81,0.00,CLR,,0.00,WeatherDisplay:10.37,2013-12-30 11:30:00,
2013-12-30 06:35:00,17.5,12.1,30.67,NW,315,7.0,16.0,79,0.00,CLR,,0.00,WeatherDisplay:10.37,2013-12-30 11:35:00,
2013-12-30 06:36:00,19.6,14.0,30.02,NW,319,18.0,22.0,77,0.00,,,0.00,weatherlink.com 1.10,2013-12-30 11:36:00,
2013-12-30 06:40:00,17.5,12.1,30.67,NW,315,7.0,16.0,79,0.00,CLR,,0.00,WeatherDisplay:10.37,2013-12-30 11:40:00,
2013-12-30 06:45:00,17.5,12.1,30.67,NW,315,7.0,16.0,79,0.00,CLR,,0.00,WeatherDisplay:10.37,2013-12-30 11:45:00,
2013-12-30 06:50:00,17.5,12.1,30.67,NW,315,7.0,16.0,79,0.00,CLR,,0.00,WeatherDisplay:10.37,2013-12-30 11:50:00,
2013-12-30 06:51:00,18.9,13.0,30.05,NW,309,2.0,15.0,78,0.00,,,0.00,weatherlink.com 1.10,2013-12-30 11:51:00,
2013-12-30 06:55:00,17.5,12.1,30.67,NW,315,7.0,16.0,79,0.00,CLR,,0.00,WeatherDisplay:10.37,2013-12-30 11:55:00,
2013-12-30 07:00:00,17.5,12.1,30.67,NW,315,7.0,16.0,79,0.00,CLR,,0.00,WeatherDisplay:10.37,2013-12-30 12:00:00,
2013-12-30 07:05:00,17.7,12.3,30.68,NW,315,6.0,13.0,79,0.00,CLR,,0.00,WeatherDisplay:10.37,2013-12-30 12:05:00,
2013-12-30 07:06:00,18.6,13.0,30.06,NW,324,9.0,21.0,77,0.00,,,0.00,weatherlink.com 1.10,2013-12-30 12:06:00,
2013-12-30 07:10:00,17.7,12.3,30.68,NW,315,6.0,13.0,79,0.00,CLR,,0.00,WeatherDisplay:10.37,2013-12-30 12:10:00,
2013-12-30 07:15:00,17.7,12.3,30.68,NW,315,6.0,13.0,79,0.00,CLR,,0.00,WeatherDisplay:10.37,2013-12-30 12:15:00,
2013-12-30 07:20:00,17.7,12.3,30.68,NW,315,6.0,13.0,79,0.00,CLR,,0.00,WeatherDisplay:10.37,2013-12-30 12:20:00,
2013-12-30 07:21:00,18.2,15.0,30.07,NW,307,7.0,18.0,86,0.00,,,0.00,weatherlink.com 1.10,2013-12-30 12:21:00,
2013-12-30 07:25:00,17.7,12.3,30.68,NW,315,6.0,13.0,79,0.00,CLR,,0.00,WeatherDisplay:10.37,2013-12-30 12:25:00,
2013-12-30 07:30:00,17.7,12.3,30.68,NW,315,6.0,13.0,79,0.00,CLR,,0.00,WeatherDisplay:10.37,2013-12-30 12:30:00,
2013-12-30 07:35:00,17.4,11.7,30.69,NW,326,6.0,13.0,78,0.00,CLR,,0.00,WeatherDisplay:10.37,2013-12-30 12:35:00,
2013-12-30 07:36:00,17.5,15.0,30.09,NW,319,7.0,18.0,89,0.00,,,0.00,weatherlink.com 1.10,2013-12-30 12:36:00,
2013-12-30 07:40:00,17.4,11.7,30.69,NNW,338,6.0,13.0,78,0.00,CLR,,0.00,WeatherDisplay:10.37,2013-12-30 12:40:00,
2013-12-30 07:45:00,17.4,11.7,30.69,NNW,338,6.0,13.0,78,0.00,CLR,,0.00,WeatherDisplay:10.37,2013-12-30 12:45:00,
2013-12-30 07:50:00,17.4,11.7,30.69,NNW,338,6.0,13.0,78,0.00,CLR,,0.00,WeatherDisplay:10.37,2013-12-30 12:50:00,
2013-12-30 07:51:00,17.3,13.0,30.09,NW,310,11.0,21.0,82,0.00,,,0.00,weatherlink.com 1.10,2013-12-30 12:51:00,
2013-12-30 07:55:00,17.4,11.7,30.69,NNW,338,6.0,13.0,78,0.00,CLR,,0.00,WeatherDisplay:10.37,2013-12-30 12:55:00,
2013-12-30 08:00:00,17.4,11.7,30.69,NNW,338,6.0,13.0,78,0.00,CLR,,0.00,WeatherDisplay:10.37,2013-12-30 13:00:00,
2013-12-30 08:05:00,16.9,10.0,30.68,NNW,338,7.0,14.0,74,0.00,CLR,,0.00,WeatherDisplay:10.37,2013-12-30 13:05:00,
2013-12-30 08:06:00,17.5,13.0,30.10,NW,307,8.0,16.0,81,0.00,,,0.00,weatherlink.com 1.10,2013-12-30 13:06:00,
2013-12-30 08:10:00,16.9,10.0,30.68,NNW,338,7.0,14.0,74,0.00,CLR,,0.00,WeatherDisplay:10.37,2013-12-30 13:10:00,
2013-12-30 08:15:00,16.9,10.0,30.68,NNW,338,7.0,14.0,74,0.00,CLR,,0.00,WeatherDisplay:10.37,2013-12-30 13:15:00,
2013-12-30 08:20:00,16.9,10.0,30.68,NNW,338,7.0,14.0,74,0.00,CLR,,0.00,WeatherDisplay:10.37,2013-12-30 13:20:00,
2013-12-30 08:21:00,17.3,14.0,30.10,NW,319,9.0,14.0,85,0.00,,,0.00,weatherlink.com 1.10,2013-12-30 13:21:00,
2013-12-30 08:25:00,16.9,10.0,30.68,NNW,338,7.0,14.0,74,0.00,CLR,,0.00,WeatherDisplay:10.37,2013-12-30 13:25:00,
2013-12-30 08:30:00,16.9,10.0,30.68,NNW,338,7.0,14.0,74,0.00,CLR,,0.00,WeatherDisplay:10.37,2013-12-30 13:30:00,
2013-12-30 08:35:00,17.0,11.9,30.69,NNW,338,5.0,15.0,80,0.00,CLR,,0.00,WeatherDisplay:10.37,2013-12-30 13:35:00,
2013-12-30 08:40:00,17.0,11.9,30.69,NNW,338,5.0,15.0,80,0.00,CLR,,0.00,WeatherDisplay:10.37,2013-12-30 13:40:00,
2013-12-30 08:45:00,17.0,11.9,30.69,NNW,338,5.0,15.0,80,0.00,CLR,,0.00,WeatherDisplay:10.37,2013-12-30 13:45:00,
2013-12-30 08:50:00,17.0,11.9,30.69,NNW,338,5.0,15.0,80,0.00,CLR,,0.00,WeatherDisplay:10.37,2013-12-30 13:50:00,
2013-12-30 08:51:00,17.2,14.0,30.12,WNW,292,10.0,13.0,86,0.00,,,0.00,weatherlink.com 1.10,2013-12-30 13:51:00,
2013-12-30 08:55:00,17.0,11.9,30.69,NNW,338,5.0,15.0,80,0.00,CLR,,0.00,WeatherDisplay:10.37,2013-12-30 13:55:00,
2013-12-30 09:00:00,17.0,11.9,30.69,NNW,338,5.0,15.0,80,0.00,CLR,,0.00,WeatherDisplay:10.37,2013-12-30 14:00:00,
2013-12-30 09:05:00,16.9,10.3,30.69,NW,325,6.0,14.0,75,0.00,CLR,,0.00,WeatherDisplay:10.37,2013-12-30 14:05:00,
2013-12-30 09:06:00,17.0,14.0,30.13,NNW,327,6.0,11.0,88,0.00,,,0.00,weatherlink.com 1.10,2013-12-30 14:06:00,
2013-12-30 09:10:00,16.9,10.3,30.69,NW,315,6.0,14.0,75,0.00,CLR,,0.00,WeatherDisplay:10.37,2013-12-30 14:10:00,
2013-12-30 09:15:00,16.9,10.3,30.69,NW,315,6.0,14.0,75,0.00,CLR,,0.00,WeatherDisplay:10.37,2013-12-30 14:15:00,
2013-12-30 09:20:00,16.9,10.3,30.69,NW,315,6.0,14.0,75,0.00,CLR,,0.00,WeatherDisplay:10.37,2013-12-30 14:20:00,
2013-12-30 09:21:00,16.2,14.0,30.14,NNW,333,9.0,14.0,90,0.00,,,0.00,weatherlink.com 1.10,2013-12-30 14:21:00,
2013-12-30 09:25:00,16.9,10.3,30.69,NW,315,6.0,14.0,75,0.00,CLR,,0.00,WeatherDisplay:10.37,2013-12-30 14:25:00,
2013-12-30 09:30:00,16.9,10.3,30.69,NW,315,6.0,14.0,75,0.00,CLR,,0.00,WeatherDisplay:10.37,2013-12-30 14:30:00,
2013-12-30 09:35:00,16.4,9.9,30.70,NW,315,3.0,11.0,75,0.00,CLR,,0.00,WeatherDisplay:10.37,2013-12-30 14:35:00,
2013-12-30 09:36:00,16.1,14.0,30.14,NNW,328,6.0,9.0,90,0.00,,,0.00,weatherlink.com 1.10,2013-12-30 14:36:00,
2013-12-30 09:40:00,16.4,9.9,30.70,NW,315,3.0,11.0,75,0.00,CLR,,0.00,WeatherDisplay:10.37,2013-12-30 14:40:00,
2013-12-30 09:45:00,16.4,9.9,30.70,NW,315,3.0,11.0,75,0.00,CLR,,0.00,WeatherDisplay:10.37,2013-12-30 14:45:00,
2013-12-30 09:50:00,16.4,9.9,30.70,NW,315,3.0,11.0,75,0.00,CLR,,0.00,WeatherDisplay:10.37,2013-12-30 14:50:00,
2013-12-30 09:51:00,16.4,14.0,30.15,NNW,335,4.0,8.0,90,0.00,,,0.00,weatherlink.com 1.10,2013-12-30 14:51:00,
2013-12-30 09:55:00,16.4,9.9,30.70,NW,315,3.0,11.0,75,0.00,CLR,,0.00,WeatherDisplay:10.37,2013-12-30 14:55:00,
2013-12-30 10:00:00,16.4,9.9,30.70,NW,315,3.0,11.0,75,0.00,CLR,,0.00,WeatherDisplay:10.37,2013-12-30 15:00:00,
2013-12-30 10:05:00,16.2,9.1,30.70,NW,315,3.0,9.0,73,0.00,CLR,,0.00,WeatherDisplay:10.37,2013-12-30 15:05:00,
2013-12-30 10:06:00,16.7,14.0,30.15,NNW,335,6.0,14.0,88,0.00,,,0.00,weatherlink.com 1.10,2013-12-30 15:06:00,
2013-12-30 10:10:00,16.2,9.1,30.70,NW,315,3.0,9.0,73,0.00,CLR,,0.00,WeatherDisplay:10.37,2013-12-30 15:10:00,
2013-12-30 10:15:00,16.2,9.1,30.70,NW,315,3.0,9.0,73,0.00,CLR,,0.00,WeatherDisplay:10.37,2013-12-30 15:15:00,
2013-12-30 10:20:00,16.2,9.1,30.70,NW,315,3.0,9.0,73,0.00,CLR,,0.00,WeatherDisplay:10.37,2013-12-30 15:20:00,
2013-12-30 10:21:00,17.1,14.0,30.16,NW,316,6.0,12.0,87,0.00,,,0.00,weatherlink.com 1.10,2013-12-30 15:21:00,
2013-12-30 10:25:00,16.2,9.1,30.70,NW,315,3.0,9.0,73,0.00,CLR,,0.00,WeatherDisplay:10.37,2013-12-30 15:25:00,
2013-12-30 10:30:00,16.2,9.1,30.70,NW,315,3.0,9.0,73,0.00,CLR,,0.00,WeatherDisplay:10.37,2013-12-30 15:30:00,
2013-12-30 10:35:00,15.3,8.5,30.71,NW,315,3.0,9.0,74,0.00,CLR,,0.00,WeatherDisplay:10.37,2013-12-30 15:35:00,
2013-12-30 10:36:00,17.2,13.0,30.16,NW,324,6.0,9.0,83,0.00,,,0.00,weatherlink.com 1.10,2013-12-30 15:36:00,
2013-12-30 10:40:00,15.3,8.5,30.71,NW,315,3.0,9.0,74,0.00,CLR,,0.00,WeatherDisplay:10.37,2013-12-30 15:40:00,
2013-12-30 10:45:00,15.3,8.5,30.71,NW,315,3.0,9.0,74,0.00,CLR,,0.00,WeatherDisplay:10.37,2013-12-30 15:45:00,
2013-12-30 10:50:00,15.3,8.5,30.71,NW,315,3.0,9.0,74,0.00,CLR,,0.00,WeatherDisplay:10.37,2013-12-30 15:50:00,
2013-12-30 10:51:00,17.8,14.0,30.17,NNW,343,5.0,12.0,83,0.00,,,0.00,weatherlink.com 1.10,2013-12-30 15:51:00,
2013-12-30 10:55:00,15.3,8.5,30.71,NW,315,3.0,9.0,74,0.00,CLR,,0.00,WeatherDisplay:10.37,2013-12-30 15:55:00,
2013-12-30 11:00:00,15.3,8.5,30.71,NW,315,3.0,9.0,74,0.00,CLR,,0.00,WeatherDisplay:10.37,2013-12-30 16:00:00,
2013-12-30 11:05:00,14.8,8.9,30.72,NW,315,3.0,8.0,77,0.00,CLR,,0.00,WeatherDisplay:10.37,2013-12-30 16:05:00,
2013-12-30 11:06:00,17.6,14.0,30.17,NW,309,5.0,14.0,85,0.00,,,0.00,weatherlink.com 1.10,2013-12-30 16:06:00,
2013-12-30 11:10:00,14.8,8.9,30.72,NW,315,3.0,8.0,77,0.00,CLR,,0.00,WeatherDisplay:10.37,2013-12-30 16:10:00,
2013-12-30 11:15:00,14.8,8.9,30.72,NW,315,3.0,8.0,77,0.00,CLR,,0.00,WeatherDisplay:10.37,2013-12-30 16:15:00,
2013-12-30 11:20:00,14.8,8.9,30.72,NW,315,3.0,8.0,77,0.00,CLR,,0.00,WeatherDisplay:10.37,2013-12-30 16:20:00,
2013-12-30 11:21:00,16.6,13.0,30.18,NNW,333,8.0,12.0,84,0.00,,,0.00,weatherlink.com 1.10,2013-12-30 16:21:00,
2013-12-30 11:25:00,14.8,8.9,30.72,NW,315,3.0,8.0,77,0.00,CLR,,0.00,WeatherDisplay:10.37,2013-12-30 16:25:00,
2013-12-30 11:30:00,14.8,8.9,30.72,NW,315,3.0,8.0,77,0.00,CLR,,0.00,WeatherDisplay:10.37,2013-12-30 16:30:00,
2013-12-30 11:35:00,14.5,9.2,30.72,NW,315,2.0,7.0,79,0.00,CLR,,0.00,WeatherDisplay:10.37,2013-12-30 16:35:00,
2013-12-30 11:36:00,16.3,11.0,30.18,West,274,7.0,10.0,81,0.00,,,0.00,weatherlink.com 1.10,2013-12-30 16:36:00,
2013-12-30 11:40:00,14.5,9.2,30.72,NW,315,2.0,7.0,79,0.00,CLR,,0.00,WeatherDisplay:10.37,2013-12-30 16:40:00,
2013-12-30 11:45:00,14.5,9.2,30.72,NW,315,2.0,7.0,79,0.00,CLR,,0.00,WeatherDisplay:10.37,2013-12-30 16:45:00,
2013-12-30 11:50:00,14.5,9.2,30.72,NW,315,2.0,7.0,79,0.00,CLR,,0.00,WeatherDisplay:10.37,2013-12-30 16:50:00,
2013-12-30 11:55:00,14.5,9.2,30.72,NW,315,2.0,7.0,79,0.00,CLR,,0.00,WeatherDisplay:10.37,2013-12-30 16:55:00,
2013-12-30 12:00:00,14.5,9.2,30.72,NW,315,2.0,7.0,79,0.00,CLR,,0.00,WeatherDisplay:10.37,2013-12-30 17:00:00,
2013-12-30 12:05:00,14.8,8.9,30.71,NW,315,1.0,5.0,77,0.00,CLR,,0.00,WeatherDisplay:10.37,2013-12-30 17:05:00,
2013-12-30 12:06:00,16.5,11.0,30.19,NW,318,10.0,16.0,80,0.00,,,0.00,weatherlink.com 1.10,2013-12-30 17:06:00,
2013-12-30 12:10:00,14.8,8.9,30.71,NW,315,1.0,5.0,77,0.00,CLR,,0.00,WeatherDisplay:10.37,2013-12-30 17:10:00,
2013-12-30 12:15:00,14.8,8.9,30.71,NW,315,1.0,5.0,77,0.00,CLR,,0.00,WeatherDisplay:10.37,2013-12-30 17:15:00,
2013-12-30 12:20:00,14.8,8.9,30.71,NW,315,1.0,5.0,77,0.00,CLR,,0.00,WeatherDisplay:10.37,2013-12-30 17:20:00,
2013-12-30 12:21:00,17.3,12.0,30.17,NW,324,6.0,13.0,78,0.00,,,0.00,weatherlink.com 1.10,2013-12-30 17:21:00,
2013-12-30 12:25:00,14.8,8.9,30.71,NW,315,1.0,5.0,77,0.00,CLR,,0.00,WeatherDisplay:10.37,2013-12-30 17:25:00,
2013-12-30 12:30:00,14.8,8.9,30.71,NW,315,1.0,5.0,77,0.00,CLR,,0.00,WeatherDisplay:10.37,2013-12-30 17:30:00,
2013-12-30 12:35:00,14.5,8.6,30.71,WNW,300,2.0,5.0,77,0.00,CLR,,0.00,WeatherDisplay:10.37,2013-12-30 17:35:00,
2013-12-30 12:36:00,17.2,11.0,30.18,NNW,343,8.0,14.0,77,0.00,,,0.00,weatherlink.com 1.10,2013-12-30 17:36:00,
2013-12-30 12:40:00,14.5,8.6,30.71,WNW,292,2.0,5.0,77,0.00,CLR,,0.00,WeatherDisplay:10.37,2013-12-30 17:40:00,
2013-12-30 12:45:00,14.5,8.6,30.71,WNW,292,2.0,5.0,77,0.00,CLR,,0.00,WeatherDisplay:10.37,2013-12-30 17:45:00,
2013-12-30 12:50:00,14.5,8.6,30.71,WNW,292,2.0,5.0,77,0.00,CLR,,0.00,WeatherDisplay:10.37,2013-12-30 17:50:00,
2013-12-30 12:51:00,17.2,11.0,30.17,NW,311,8.0,12.0,75,0.00,,,0.00,weatherlink.com 1.10,2013-12-30 17:51:00,
2013-12-30 12:55:00,14.5,8.6,30.71,WNW,292,2.0,5.0,77,0.00,CLR,,0.00,WeatherDisplay:10.37,2013-12-30 17:55:00,
2013-12-30 13:00:00,14.5,8.6,30.71,WNW,292,2.0,5.0,77,0.00,CLR,,0.00,WeatherDisplay:10.37,2013-12-30 18:00:00,
2013-12-30 13:05:00,14.3,9.0,30.72,WNW,303,2.0,6.0,79,0.00,CLR,,0.00,WeatherDisplay:10.37,2013-12-30 18:05:00,
2013-12-30 13:06:00,18.0,14.0,30.18,NNW,345,6.0,12.0,84,0.00,,,0.00,weatherlink.com 1.10,2013-12-30 18:06:00,
2013-12-30 13:10:00,14.3,9.0,30.72,NW,315,2.0,6.0,79,0.00,CLR,,0.00,WeatherDisplay:10.37,2013-12-30 18:10:00,
2013-12-30 13:15:00,14.3,9.0,30.72,NW,315,2.0,6.0,79,0.00,CLR,,0.00,WeatherDisplay:10.37,2013-12-30 18:15:00,
2013-12-30 13:20:00,14.3,9.0,30.72,NW,315,2.0,6.0,79,0.00,CLR,,0.00,WeatherDisplay:10.37,2013-12-30 18:20:00,
2013-12-30 13:21:00,17.2,12.0,30.19,NNW,333,5.0,13.0,79,0.00,,,0.00,weatherlink.com 1.10,2013-12-30 18:21:00,
2013-12-30 13:25:00,14.3,9.0,30.72,NW,315,2.0,6.0,79,0.00,CLR,,0.00,WeatherDisplay:10.37,2013-12-30 18:25:00,
2013-12-30 13:30:00,14.3,9.0,30.72,NW,315,2.0,6.0,79,0.00,CLR,,0.00,WeatherDisplay:10.37,2013-12-30 18:30:00,
2013-12-30 13:35:00,14.3,7.2,30.71,NW,315,2.0,6.0,73,0.00,CLR,,0.00,WeatherDisplay:10.37,2013-12-30 18:35:00,
2013-12-30 13:36:00,17.5,11.0,30.18,NW,325,5.0,13.0,77,0.00,,,0.00,weatherlink.com 1.10,2013-12-30 18:36:00,
2013-12-30 13:40:00,14.3,7.2,30.71,NW,315,2.0,6.0,73,0.00,CLR,,0.00,WeatherDisplay:10.37,2013-12-30 18:40:00,
2013-12-30 13:45:00,14.3,7.2,30.71,NW,315,2.0,6.0,73,0.00,CLR,,0.00,WeatherDisplay:10.37,2013-12-30 18:45:00,
2013-12-30 13:50:00,14.3,7.2,30.71,NW,315,2.0,6.0,73,0.00,CLR,,0.00,WeatherDisplay:10.37,2013-12-30 18:50:00,
2013-12-30 13:51:00,17.4,11.0,30.18,NW,312,9.0,10.0,77,0.00,,,0.00,weatherlink.com 1.10,2013-12-30 18:51:00,
2013-12-30 13:55:00,14.3,7.2,30.71,NW,315,2.0,6.0,73,0.00,CLR,,0.00,WeatherDisplay:10.37,2013-12-30 18:55:00,
2013-12-30 14:00:00,14.3,7.2,30.71,NW,315,2.0,6.0,73,0.00,CLR,,0.00,WeatherDisplay:10.37,2013-12-30 19:00:00,
2013-12-30 14:05:00,14.3,8.7,30.72,NW,315,2.0,5.0,78,0.00,CLR,,0.00,WeatherDisplay:10.37,2013-12-30 19:05:00,
2013-12-30 14:06:00,16.8,10.0,30.18,NW,305,7.0,13.0,76,0.00,,,0.00,weatherlink.com 1.10,2013-12-30 19:06:00,
2013-12-30 14:10:00,14.3,8.7,30.72,NW,315,2.0,5.0,78,0.00,CLR,,0.00,WeatherDisplay:10.37,2013-12-30 19:10:00,
2013-12-30 14:15:00,14.3,8.7,30.72,NW,315,2.0,5.0,78,0.00,CLR,,0.00,WeatherDisplay:10.37,2013-12-30 19:15:00,
2013-12-30 14:20:00,14.3,8.7,30.72,NW,315,2.0,5.0,78,0.00,CLR,,0.00,WeatherDisplay:10.37,2013-12-30 19:20:00,
2013-12-30 14:21:00,17.0,12.0,30.19,NNW,346,4.0,9.0,81,0.00,,,0.00,weatherlink.com 1.10,2013-12-30 19:21:00,
2013-12-30 14:25:00,14.3,8.7,30.72,NW,315,2.0,5.0,78,0.00,CLR,,0.00,WeatherDisplay:10.37,2013-12-30 19:25:00,
2013-12-30 14:30:00,14.3,8.7,30.72,NW,315,2.0,5.0,78,0.00,CLR,,0.00,WeatherDisplay:10.37,2013-12-30 19:30:00,
2013-12-30 14:35:00,14.3,9.5,30.71,NW,315,1.0,4.0,81,0.00,CLR,,0.00,WeatherDisplay:10.37,2013-12-30 19:35:00,
2013-12-30 14:36:00,16.8,11.0,30.18,WNW,297,8.0,12.0,77,0.00,,,0.00,weatherlink.com 1.10,2013-12-30 19:36:00,
2013-12-30 14:40:00,14.3,9.5,30.71,NW,315,1.0,4.0,81,0.00,CLR,,0.00,WeatherDisplay:10.37,2013-12-30 19:40:00,
2013-12-30 14:45:00,14.3,9.5,30.71,NW,315,1.0,4.0,81,0.00,CLR,,0.00,WeatherDisplay:10.37,2013-12-30 19:45:00,
2013-12-30 14:50:00,14.3,9.5,30.71,NW,315,1.0,4.0,81,0.00,CLR,,0.00,WeatherDisplay:10.37,2013-12-30 19:50:00,
2013-12-30 14:51:00,17.4,11.0,30.18,WNW,302,11.0,14.0,75,0.00,,,0.00,weatherlink.com 1.10,2013-12-30 19:51:00,
2013-12-30 14:55:00,14.3,9.5,30.71,NW,315,1.0,4.0,81,0.00,CLR,,0.00,WeatherDisplay:10.37,2013-12-30 19:55:00,
2013-12-30 15:00:00,14.3,9.5,30.71,NW,315,1.0,4.0,81,0.00,CLR,,0.00,WeatherDisplay:10.37,2013-12-30 20:00:00,
2013-12-30 15:05:00,14.1,9.9,30.72,NW,315,1.0,4.0,83,0.00,CLR,,0.00,WeatherDisplay:10.37,2013-12-30 20:05:00,
2013-12-30 15:06:00,16.8,10.0,30.19,NNW,334,4.0,8.0,75,0.00,,,0.00,weatherlink.com 1.10,2013-12-30 20:06:00,
2013-12-30 15:10:00,14.1,9.9,30.72,NW,315,1.0,4.0,83,0.00,CLR,,0.00,WeatherDisplay:10.37,2013-12-30 20:10:00,
2013-12-30 15:15:00,14.1,9.9,30.72,NW,315,1.0,4.0,83,0.00,CLR,,0.00,WeatherDisplay:10.37,2013-12-30 20:15:00,
2013-12-30 15:20:00,14.1,9.9,30.72,NW,315,1.0,4.0,83,0.00,CLR,,0.00,WeatherDisplay:10.37,2013-12-30 20:20:00,
2013-12-30 15:21:00,16.4,10.0,30.19,NW,325,5.0,8.0,76,0.00,,,0.00,weatherlink.com 1.10,2013-12-30 20:21:00,
2013-12-30 15:25:00,14.1,9.9,30.72,NW,315,1.0,4.0,83,0.00,CLR,,0.00,WeatherDisplay:10.37,2013-12-30 20:25:00,
2013-12-30 15:30:00,14.1,9.9,30.72,NW,315,1.0,4.0,83,0.00,CLR,,0.00,WeatherDisplay:10.37,2013-12-30 20:30:00,
2013-12-30 15:35:00,13.9,10.5,30.72,NW,315,0.0,1.0,86,0.00,CLR,,0.00,WeatherDisplay:10.37,2013-12-30 20:35:00,
2013-12-30 15:37:00,16.8,10.0,30.20,NW,310,3.0,11.0,76,0.00,,,0.00,weatherlink.com 1.10,2013-12-30 20:37:00,
2013-12-30 15:40:00,13.9,10.5,30.72,NW,315,0.0,1.0,86,0.00,CLR,,0.00,WeatherDisplay:10.37,2013-12-30 20:40:00,
2013-12-30 15:45:00,13.9,10.5,30.72,NW,315,0.0,1.0,86,0.00,CLR,,0.00,WeatherDisplay:10.37,2013-12-30 20:45:00,
2013-12-30 15:50:00,13.9,10.5,30.72,NW,315,0.0,1.0,86,0.00,CLR,,0.00,WeatherDisplay:10.37,2013-12-30 20:50:00,
2013-12-30 15:52:00,16.6,10.0,30.20,NNW,342,4.0,9.0,75,0.00,,,0.00,weatherlink.com 1.10,2013-12-30 20:52:00,
2013-12-30 15:55:00,13.9,10.5,30.72,NW,315,0.0,1.0,86,0.00,CLR,,0.00,WeatherDisplay:10.37,2013-12-30 20:55:00,
2013-12-30 16:00:00,13.9,10.5,30.72,NW,315,0.0,1.0,86,0.00,CLR,,0.00,WeatherDisplay:10.37,2013-12-30 21:00:00,
2013-12-30 16:05:00,14.1,10.9,30.71,NW,315,0.0,2.0,87,0.00,CLR,,0.00,WeatherDisplay:10.37,2013-12-30 21:05:00,
2013-12-30 16:07:00,16.0,9.0,30.20,NW,308,2.0,8.0,74,0.00,,,0.00,weatherlink.com 1.10,2013-12-30 21:07:00,
2013-12-30 16:10:00,14.1,10.9,30.71,NW,315,0.0,2.0,87,0.00,CLR,,0.00,WeatherDisplay:10.37,2013-12-30 21:10:00,
2013-12-30 16:15:00,14.1,10.9,30.71,NW,315,0.0,2.0,87,0.00,CLR,,0.00,WeatherDisplay:10.37,2013-12-30 21:15:00,
2013-12-30 16:20:00,14.1,10.9,30.71,NW,315,0.0,2.0,87,0.00,CLR,,0.00,WeatherDisplay:10.37,2013-12-30 21:20:00,
2013-12-30 16:22:00,15.5,9.0,30.20,NNW,337,4.0,8.0,75,0.00,,,0.00,weatherlink.com 1.10,2013-12-30 21:22:00,
2013-12-30 16:25:00,14.1,10.9,30.71,NW,315,0.0,2.0,87,0.00,CLR,,0.00,WeatherDisplay:10.37,2013-12-30 21:25:00,
2013-12-30 16:30:00,14.1,10.9,30.71,NW,315,0.0,2.0,87,0.00,CLR,,0.00,WeatherDisplay:10.37,2013-12-30 21:30:00,
2013-12-30 16:35:00,14.8,11.4,30.71,WNW,294,1.0,3.0,86,0.00,CLR,,0.00,WeatherDisplay:10.37,2013-12-30 21:35:00,
2013-12-30 16:37:00,15.1,9.0,30.21,NW,311,2.0,7.0,75,0.00,,,0.00,weatherlink.com 1.10,2013-12-30 21:37:00,
2013-12-30 16:40:00,14.8,11.4,30.71,West,270,1.0,3.0,86,0.00,CLR,,0.00,WeatherDisplay:10.37,2013-12-30 21:40:00,
2013-12-30 16:45:00,14.8,11.4,30.71,West,270,1.0,3.0,86,0.00,CLR,,0.00,WeatherDisplay:10.37,2013-12-30 21:45:00,
2013-12-30 16:50:00,14.8,11.4,30.71,West,270,1.0,3.0,86,0.00,CLR,,0.00,WeatherDisplay:10.37,2013-12-30 21:50:00,
2013-12-30 16:52:00,14.8,9.0,30.21,WNW,292,3.0,6.0,76,0.00,,,0.00,weatherlink.com 1.10,2013-12-30 21:52:00,
2013-12-30 16:55:00,14.8,11.4,30.71,West,270,1.0,3.0,86,0.00,CLR,,0.00,WeatherDisplay:10.37,2013-12-30 21:55:00,
2013-12-30 17:00:00,14.8,11.4,30.71,West,270,1.0,3.0,86,0.00,CLR,,0.00,WeatherDisplay:10.37,2013-12-30 22:00:00,
2013-12-30 17:05:00,15.2,11.8,30.71,West,270,1.0,3.0,86,0.00,CLR,,0.00,WeatherDisplay:10.37,2013-12-30 22:05:00,
2013-12-30 17:07:00,14.7,9.0,30.21,WNW,294,2.0,8.0,77,0.00,,,0.00,weatherlink.com 1.10,2013-12-30 22:07:00,
2013-12-30 17:10:00,15.2,11.8,30.71,West,270,1.0,3.0,86,0.00,CLR,,0.00,WeatherDisplay:10.37,2013-12-30 22:10:00,
2013-12-30 17:15:00,15.2,11.8,30.71,West,270,1.0,3.0,86,0.00,CLR,,0.00,WeatherDisplay:10.37,2013-12-30 22:15:00,
2013-12-30 17:20:00,15.2,11.8,30.71,West,270,1.0,3.0,86,0.00,CLR,,0.00,WeatherDisplay:10.37,2013-12-30 22:20:00,
2013-12-30 17:22:00,14.5,9.0,30.21,NNW,332,2.0,4.0,80,0.00,,,0.00,weatherlink.com 1.10,2013-12-30 22:22:00,
2013-12-30 17:25:00,15.2,11.8,30.71,West,270,1.0,3.0,86,0.00,CLR,,0.00,WeatherDisplay:10.37,2013-12-30 22:25:00,
2013-12-30 17:30:00,15.2,11.8,30.71,West,270,1.0,3.0,86,0.00,CLR,,0.00,WeatherDisplay:10.37,2013-12-30 22:30:00,
2013-12-30 17:35:00,15.3,11.6,30.70,West,270,1.0,3.0,85,0.00,CLR,,0.00,WeatherDisplay:10.37,2013-12-30 22:35:00,
2013-12-30 17:37:00,14.5,9.0,30.21,NW,317,2.0,5.0,80,0.00,,,0.00,weatherlink.com 1.10,2013-12-30 22:37:00,
2013-12-30 17:40:00,15.3,11.6,30.70,West,270,1.0,3.0,85,0.00,CLR,,0.00,WeatherDisplay:10.37,2013-12-30 22:40:00,
2013-12-30 17:45:00,15.3,11.6,30.70,West,270,1.0,3.0,85,0.00,CLR,,0.00,WeatherDisplay:10.37,2013-12-30 22:45:00,
2013-12-30 17:50:00,15.3,11.6,30.70,West,270,1.0,3.0,85,0.00,CLR,,0.00,WeatherDisplay:10.37,2013-12-30 22:50:00,
2013-12-30 17:52:00,14.7,9.0,30.21,NW,319,2.0,4.0,78,0.00,,,0.00,weatherlink.com 1.10,2013-12-30 22:52:00,
2013-12-30 17:55:00,15.3,11.6,30.70,West,270,1.0,3.0,85,0.00,CLR,,0.00,WeatherDisplay:10.37,2013-12-30 22:55:00,
2013-12-30 18:00:00,15.3,11.6,30.70,West,270,1.0,3.0,85,0.00,CLR,,0.00,WeatherDisplay:10.37,2013-12-30 23:00:00,
2013-12-30 18:05:00,15.3,11.6,30.69,West,270,0.0,2.0,85,0.00,CLR,,0.00,WeatherDisplay:10.37,2013-12-30 23:05:00,
2013-12-30 18:07:00,14.9,9.0,30.21,WNW,303,1.0,5.0,76,0.00,,,0.00,weatherlink.com 1.10,2013-12-30 23:07:00,
2013-12-30 18:10:00,15.3,11.6,30.69,West,270,0.0,2.0,85,0.00,CLR,,0.00,WeatherDisplay:10.37,2013-12-30 23:10:00,
2013-12-30 18:15:00,15.3,11.6,30.69,West,270,0.0,2.0,85,0.00,CLR,,0.00,WeatherDisplay:10.37,2013-12-30 23:15:00,
2013-12-30 18:20:00,15.3,11.6,30.69,West,270,0.0,2.0,85,0.00,CLR,,0.00,WeatherDisplay:10.37,2013-12-30 23:20:00,
2013-12-30 18:22:00,14.6,8.0,30.21,WNW,289,3.0,5.0,76,0.00,,,0.00,weatherlink.com 1.10,2013-12-30 23:22:00,
2013-12-30 18:25:00,15.3,11.6,30.69,West,270,0.0,2.0,85,0.00,CLR,,0.00,WeatherDisplay:10.37,2013-12-30 23:25:00,
2013-12-30 18:30:00,15.3,11.6,30.69,West,270,0.0,2.0,85,0.00,CLR,,0.00,WeatherDisplay:10.37,2013-12-30 23:30:00,
2013-12-30 18:35:00,15.2,11.2,30.68,West,270,0.0,2.0,84,0.00,CLR,,0.00,WeatherDisplay:10.37,2013-12-30 23:35:00,
2013-12-30 18:38:00,14.4,9.0,30.21,WNW,299,0.0,3.0,78,0.00,,,0.00,weatherlink.com 1.10,2013-12-30 23:38:00,
2013-12-30 18:40:00,15.2,11.2,30.68,West,270,0.0,2.0,84,0.00,CLR,,0.00,WeatherDisplay:10.37,2013-12-30 23:40:00,
2013-12-30 18:45:00,15.2,11.2,30.68,West,270,0.0,2.0,84,0.00,CLR,,0.00,WeatherDisplay:10.37,2013-12-30 23:45:00,
2013-12-30 18:50:00,15.2,11.2,30.68,West,270,0.0,2.0,84,0.00,CLR,,0.00,WeatherDisplay:10.37,2013-12-30 23:50:00,
2013-12-30 18:52:00,14.3,9.0,30.21,NW,304,2.0,5.0,79,0.00,,,0.00,weatherlink.com 1.10,2013-12-30 23:52:00,
2013-12-30 18:55:00,15.2,11.2,30.68,West,270,0.0,2.0,84,0.00,CLR,,0.00,WeatherDisplay:10.37,2013-12-30 23:55:00,
2013-12-30 19:00:00,15.2,11.2,30.68,West,270,0.0,2.0,84,0.00,CLR,,0.00,WeatherDisplay:10.37,2013-12-31 00:00:00,
2013-12-30 19:05:00,15.3,10.8,30.67,West,270,0.0,1.0,82,0.00,CLR,,0.00,WeatherDisplay:10.37,2013-12-31 00:05:00,
2013-12-30 19:07:00,14.1,9.0,30.22,WNW,292,2.0,4.0,80,0.00,,,0.00,weatherlink.com 1.10,2013-12-31 00:07:00,
2013-12-30 19:10:00,15.3,10.8,30.67,West,270,0.0,1.0,82,0.00,CLR,,0.00,WeatherDisplay:10.37,2013-12-31 00:10:00,
2013-12-30 19:15:00,15.3,10.8,30.67,West,270,0.0,1.0,82,0.00,CLR,,0.00,WeatherDisplay:10.37,2013-12-31 00:15:00,
2013-12-30 19:20:00,15.3,10.8,30.67,West,270,0.0,1.0,82,0.00,CLR,,0.00,WeatherDisplay:10.37,2013-12-31 00:20:00,
2013-12-30 19:22:00,14.0,8.0,30.22,NW,312,2.0,5.0,78,0.00,,,0.00,weatherlink.com 1.10,2013-12-31 00:22:00,
2013-12-30 19:25:00,15.3,10.8,30.67,West,270,0.0,1.0,82,0.00,CLR,,0.00,WeatherDisplay:10.37,2013-12-31 00:25:00,
2013-12-30 19:30:00,15.3,10.8,30.67,West,270,0.0,1.0,82,0.00,CLR,,0.00,WeatherDisplay:10.37,2013-12-31 00:30:00,
2013-12-30 19:35:00,15.3,10.2,30.66,West,270,0.0,1.0,80,0.00,CLR,,0.00,WeatherDisplay:10.37,2013-12-31 00:35:00,
2013-12-30 19:37:00,14.5,8.0,30.21,NW,322,2.0,6.0,74,0.00,,,0.00,weatherlink.com 1.10,2013-12-31 00:37:00,
2013-12-30 19:40:00,15.3,10.2,30.66,West,270,0.0,1.0,80,0.00,CLR,,0.00,WeatherDisplay:10.37,2013-12-31 00:40:00,
2013-12-30 19:45:00,15.3,10.2,30.66,West,270,0.0,1.0,80,0.00,CLR,,0.00,WeatherDisplay:10.37,2013-12-31 00:45:00,
2013-12-30 19:50:00,15.3,10.2,30.66,West,270,0.0,1.0,80,0.00,CLR,,0.00,WeatherDisplay:10.37,2013-12-31 00:50:00,
2013-12-30 19:52:00,14.4,8.0,30.21,WNW,296,2.0,3.0,76,0.00,,,0.00,weatherlink.com 1.10,2013-12-31 00:52:00,
2013-12-30 19:55:00,15.3,10.2,30.66,West,270,0.0,1.0,80,0.00,CLR,,0.00,WeatherDisplay:10.37,2013-12-31 00:55:00,
2013-12-30 20:00:00,15.3,10.2,30.66,West,270,0.0,1.0,80,0.00,CLR,,0.00,WeatherDisplay:10.37,2013-12-31 01:00:00,
2013-12-30 20:05:00,15.4,10.1,30.65,West,270,0.0,2.0,79,0.00,CLR,,0.00,WeatherDisplay:10.37,2013-12-31 01:05:00,
2013-12-30 20:07:00,14.2,9.0,30.22,NNW,336,3.0,4.0,79,0.00,,,0.00,weatherlink.com 1.10,2013-12-31 01:07:00,
2013-12-30 20:10:00,15.4,10.1,30.65,West,270,0.0,2.0,79,0.00,CLR,,0.00,WeatherDisplay:10.37,2013-12-31 01:10:00,
2013-12-30 20:15:00,15.4,10.1,30.65,West,270,0.0,2.0,79,0.00,CLR,,0.00,WeatherDisplay:10.37,2013-12-31 01:15:00,
2013-12-30 20:20:00,15.4,10.1,30.65,West,270,0.0,2.0,79,0.00,CLR,,0.00,WeatherDisplay:10.37,2013-12-31 01:20:00,
2013-12-30 20:25:00,15.4,10.1,30.65,West,270,0.0,2.0,79,0.00,CLR,,0.00,WeatherDisplay:10.37,2013-12-31 01:25:00,
2013-12-30 20:30:00,15.4,10.1,30.65,West,270,0.0,2.0,79,0.00,CLR,,0.00,WeatherDisplay:10.37,2013-12-31 01:30:00,
2013-12-30 20:35:00,15.5,9.9,30.64,SSW,212,1.0,4.0,78,0.00,CLR,,0.00,WeatherDisplay:10.37,2013-12-31 01:35:00,
2013-12-30 20:37:00,14.3,10.0,30.21,NW,314,1.0,4.0,82,0.00,,,0.00,weatherlink.com 1.10,2013-12-31 01:37:00,
2013-12-30 20:40:00,15.5,9.9,30.64,SE,135,1.0,4.0,78,0.00,CLR,,0.00,WeatherDisplay:10.37,2013-12-31 01:40:00,
2013-12-30 20:45:00,15.5,9.9,30.64,SE,135,1.0,4.0,78,0.00,CLR,,0.00,WeatherDisplay:10.37,2013-12-31 01:45:00,
2013-12-30 20:50:00,15.5,9.9,30.64,SE,135,1.0,4.0,78,0.00,CLR,,0.00,WeatherDisplay:10.37,2013-12-31 01:50:00,
2013-12-30 20:52:00,14.2,10.0,30.21,NW,321,0.0,3.0,83,0.00,,,0.00,weatherlink.com 1.10,2013-12-31 01:52:00,
2013-12-30 20:55:00,15.5,9.9,30.64,SE,135,1.0,4.0,78,0.00,CLR,,0.00,WeatherDisplay:10.37,2013-12-31 01:55:00,
2013-12-30 21:00:00,15.5,9.9,30.64,SE,135,1.0,4.0,78,0.00,CLR,,0.00,WeatherDisplay:10.37,2013-12-31 02:00:00,
2013-12-30 21:05:00,15.4,9.5,30.63,SE,135,2.0,5.0,77,0.00,CLR,,0.00,WeatherDisplay:10.37,2013-12-31 02:05:00,
2013-12-30 21:07:00,13.9,10.0,30.21,WNW,300,0.0,1.0,84,0.00,,,0.00,weatherlink.com 1.10,2013-12-31 02:07:00,
2013-12-30 21:10:00,15.4,9.5,30.63,SE,135,2.0,5.0,77,0.00,CLR,,0.00,WeatherDisplay:10.37,2013-12-31 02:10:00,
2013-12-30 21:15:00,15.4,9.5,30.63,SE,135,2.0,5.0,77,0.00,CLR,,0.00,WeatherDisplay:10.37,2013-12-31 02:15:00,
2013-12-30 21:20:00,15.4,9.5,30.63,SE,135,2.0,5.0,77,0.00,CLR,,0.00,WeatherDisplay:10.37,2013-12-31 02:20:00,
2013-12-30 21:22:00,13.8,10.0,30.21,WNW,300,0.0,1.0,85,0.00,,,0.00,weatherlink.com 1.10,2013-12-31 02:22:00,
2013-12-30 21:25:00,15.4,9.5,30.63,SE,135,2.0,5.0,77,0.00,CLR,,0.00,WeatherDisplay:10.37,2013-12-31 02:25:00,
2013-12-30 21:30:00,15.4,9.5,30.63,SE,135,2.0,5.0,77,0.00,CLR,,0.00,WeatherDisplay:10.37,2013-12-31 02:30:00,
2013-12-30 21:35:00,15.4,9.8,30.61,SE,135,1.0,4.0,78,0.00,CLR,,0.00,WeatherDisplay:10.37,2013-12-31 02:35:00,
2013-12-30 21:37:00,13.9,11.0,30.21,WNW,300,0.0,1.0,86,0.00,,,0.00,weatherlink.com 1.10,2013-12-31 02:37:00,
2013-12-30 21:40:00,15.4,9.8,30.61,SE,135,1.0,4.0,78,0.00,CLR,,0.00,WeatherDisplay:10.37,2013-12-31 02:40:00,
2013-12-30 21:45:00,15.4,9.8,30.61,SE,135,1.0,4.0,78,0.00,CLR,,0.00,WeatherDisplay:10.37,2013-12-31 02:45:00,
2013-12-30 21:50:00,15.4,9.8,30.61,SE,135,1.0,4.0,78,0.00,CLR,,0.00,WeatherDisplay:10.37,2013-12-31 02:50:00,
2013-12-30 21:52:00,14.0,11.0,30.21,WNW,300,0.0,1.0,87,0.00,,,0.00,weatherlink.com 1.10,2013-12-31 02:52:00,
2013-12-30 21:55:00,15.4,9.8,30.61,SE,135,1.0,4.0,78,0.00,CLR,,0.00,WeatherDisplay:10.37,2013-12-31 02:55:00,
2013-12-30 22:00:00,15.4,9.8,30.61,SE,135,1.0,4.0,78,0.00,CLR,,0.00,WeatherDisplay:10.37,2013-12-31 03:00:00,
2013-12-30 22:05:00,15.3,9.7,30.60,SE,135,1.0,5.0,78,0.00,CLR,,0.00,WeatherDisplay:10.37,2013-12-31 03:05:00,
2013-12-30 22:07:00,14.3,11.0,30.21,WSW,252,0.0,2.0,87,0.00,,,0.00,weatherlink.com 1.10,2013-12-31 03:07:00,
2013-12-30 22:10:00,15.3,9.7,30.60,SE,135,1.0,5.0,78,0.00,CLR,,0.00,WeatherDisplay:10.37,2013-12-31 03:10:00,
2013-12-30 22:15:00,15.3,9.7,30.60,SE,135,1.0,5.0,78,0.00,CLR,,0.00,WeatherDisplay:10.37,2013-12-31 03:15:00,
2013-12-30 22:20:00,15.3,9.7,30.60,SE,135,1.0,5.0,78,0.00,CLR,,0.00,WeatherDisplay:10.37,2013-12-31 03:20:00,
2013-12-30 22:22:00,14.6,11.0,30.21,West,259,0.0,3.0,86,0.00,,,0.00,weatherlink.com 1.10,2013-12-31 03:22:00,
2013-12-30 22:25:00,15.3,9.7,30.60,SE,135,1.0,5.0,78,0.00,CLR,,0.00,WeatherDisplay:10.37,2013-12-31 03:25:00,
2013-12-30 22:30:00,15.3,9.7,30.60,SE,135,1.0,5.0,78,0.00,CLR,,0.00,WeatherDisplay:10.37,2013-12-31 03:30:00,
2013-12-30 22:35:00,15.6,10.2,30.59,SE,135,1.0,5.0,79,0.00,CLR,,0.00,WeatherDisplay:10.37,2013-12-31 03:35:00,
2013-12-30 22:37:00,14.9,12.0,30.21,WNW,282,2.0,2.0,86,0.00,,,0.00,weatherlink.com 1.10,2013-12-31 03:37:00,
2013-12-30 22:40:00,15.6,10.2,30.59,SE,135,1.0,5.0,79,0.00,CLR,,0.00,WeatherDisplay:10.37,2013-12-31 03:40:00,
2013-12-30 22:45:00,15.6,10.2,30.59,SE,135,1.0,5.0,79,0.00,CLR,,0.00,WeatherDisplay:10.37,2013-12-31 03:45:00,
2013-12-30 22:50:00,15.6,10.2,30.59,SE,135,1.0,5.0,79,0.00,CLR,,0.00,WeatherDisplay:10.37,2013-12-31 03:50:00,
2013-12-30 22:52:00,15.1,12.0,30.20,WSW,257,1.0,3.0,86,0.00,,,0.00,weatherlink.com 1.10,2013-12-31 03:52:00,
2013-12-30 22:55:00,15.6,10.2,30.59,SE,135,1.0,5.0,79,0.00,CLR,,0.00,WeatherDisplay:10.37,2013-12-31 03:55:00,
2013-12-30 23:00:00,15.6,10.2,30.59,SE,135,1.0,5.0,79,0.00,CLR,,0.00,WeatherDisplay:10.37,2013-12-31 04:00:00,
2013-12-30 23:05:00,15.8,11.0,30.57,SE,135,1.0,4.0,81,0.00,CLR,,0.00,WeatherDisplay:10.37,2013-12-31 04:05:00,
2013-12-30 23:07:00,15.2,12.0,30.21,WSW,248,1.0,3.0,85,0.00,,,0.00,weatherlink.com 1.10,2013-12-31 04:07:00,
2013-12-30 23:10:00,15.8,11.0,30.57,SE,135,1.0,4.0,81,0.00,CLR,,0.00,WeatherDisplay:10.37,2013-12-31 04:10:00,
2013-12-30 23:15:00,15.8,11.0,30.57,SE,135,1.0,4.0,81,0.00,CLR,,0.00,WeatherDisplay:10.37,2013-12-31 04:15:00,
2013-12-30 23:20:00,15.8,11.0,30.57,SE,135,1.0,4.0,81,0.00,CLR,,0.00,WeatherDisplay:10.37,2013-12-31 04:20:00,
2013-12-30 23:22:00,15.3,12.0,30.20,West,279,1.0,2.0,85,0.00,,,0.00,weatherlink.com 1.10,2013-12-31 04:22:00,
2013-12-30 23:25:00,15.8,11.0,30.57,SE,135,1.0,4.0,81,0.00,CLR,,0.00,WeatherDisplay:10.37,2013-12-31 04:25:00,
2013-12-30 23:30:00,15.8,11.0,30.57,SE,135,1.0,4.0,81,0.00,CLR,,0.00,WeatherDisplay:10.37,2013-12-31 04:30:00,
2013-12-30 23:35:00,16.0,11.5,30.57,SSE,147,1.0,4.0,82,0.00,CLR,,0.00,WeatherDisplay:10.37,2013-12-31 04:35:00,
2013-12-30 23:37:00,15.3,12.0,30.20,West,263,0.0,2.0,85,0.00,,,0.00,weatherlink.com 1.10,2013-12-31 04:37:00,
2013-12-30 23:40:00,16.0,11.5,30.57,SSE,158,1.0,4.0,82,0.00,CLR,,0.00,WeatherDisplay:10.37,2013-12-31 04:40:00,
2013-12-30 23:45:00,16.0,11.5,30.57,SSE,158,1.0,4.0,82,0.00,CLR,,0.00,WeatherDisplay:10.37,2013-12-31 04:45:00,
2013-12-30 23:50:00,16.0,11.5,30.57,SSE,158,1.0,4.0,82,0.00,CLR,,0.00,WeatherDisplay:10.37,2013-12-31 04:50:00,
2013-12-30 23:52:00,15.3,12.0,30.19,West,260,0.0,1.0,85,0.00,,,0.00,weatherlink.com 1.10,2013-12-31 04:52:00,
2013-12-30 23:55:00,16.0,11.5,30.57,SSE,158,1.0,4.0,82,0.00,CLR,,0.00,WeatherDisplay:10.37,2013-12-31 04:55:00,